Regional Weather Roundup
Issued by NWS Northern Indiana

Home | Current Version | Previous Version | Graphics & Text | Print | Product List | Glossary On
Versions: 1 2 3 4 5 6 7 8 9 10 11 12 13 14 15 16 17 18 19 20 21 22 23 24 25 26 27 28 29 30 31 32 33 34 35 36 37 38 39 40 41 42 43 44 45 46 47 48 49 50
000
ASUS43 KIWX 232001
RWRIWX

KIWX WEATHER ROUNDUP
NATIONAL WEATHER SERVICE NORTHERN INDIANA
400 PM EDT SAT SEP 23 2017

NOTE: "FAIR" INDICATES FEW OR NO CLOUDS BELOW 12,000 FEET WITH NO
SIGNIFICANT WEATHER AND/OR OBSTRUCTIONS TO VISIBILITY.

* THESE STATIONS ARE NOT UNDER NWS QUALITY CONTROL. THEY ALSO MAY NOT
  REPORT WEATHER SUCH AS PRECIPITATION OR FOG.

INZ001>027-232100-
NORTHERN INDIANA

CITY           SKY/WX    TMP DP  RH WIND       PRES   REMARKS
GARY*          MOSUNNY   90  64  43 NE12      30.07F
MICHIGAN CITY* SUNNY     88  70  55 NW8       30.08F
SOUTH BEND     SUNNY     91  64  40 SE6       30.08F
ELKHART*       SUNNY     91  63  38 CALM      30.09F
GOSHEN         SUNNY     91  62  37 CALM      30.09F
MONTICELLO*    SUNNY     90  63  40 CALM      30.06F
FORT WAYNE     SUNNY     89  64  43 E7        30.10F

$$
INZ028>050-232100-
CENTRAL INDIANA

CITY           SKY/WX    TMP DP  RH WIND       PRES   REMARKS
LAFAYETTE      SUNNY     89  68  49 SE3       30.05F
KOKOMO*        SUNNY     89  66  46 SE5       30.09F
MUNCIE*        SUNNY     92  63  38 CALM      30.09F
INDIANAPOLIS   MOSUNNY   90  64  42 SE7       30.07F

$$
MIZ043>046-050>051-056>058-064>065-071>073-077>080-232100-
SOUTHWEST LOWER MICHIGAN

CITY           SKY/WX    TMP DP  RH WIND       PRES   REMARKS
BATTLE CREEK   SUNNY     93  56  28 S8        30.11F
BENTON HARBOR  SUNNY     87  66  49 NW7       30.08F
COLDWATER*     SUNNY     90  57  32 SE6       30.11F
HILLSDALE*     SUNNY     90  55  31 SE5       30.13F
HOLLAND        SUNNY     92  65  40 VRB5      30.09F
GRAND RAPIDS   MOSUNNY   91  62  37 S3        30.09F
KALAMAZOO      SUNNY     93  52  24 S6        30.09F
STURGIS*       SUNNY     91  64  39 E9        30.10F
THREE RIVERS*  FAIR      93  57  29 SE6       30.10F

$$
OHZ001>008-015>018-024>025-232100-
NORTHWEST OHIO

CITY           SKY/WX    TMP DP  RH WIND       PRES   REMARKS
DEFIANCE       SUNNY     91  63  39 N8        30.10F
FINDLAY        SUNNY     91  58  32 NE9       30.10F
TOLEDO EXPRESS SUNNY     91  68  46 NE8       30.11F HX  95
TOLEDO METCALF SUNNY     88  61  40 E7        30.12F
LIMA           SUNNY     90  60  36 NE8       30.11F

$$
AND FOR LAKE MICHIGAN COASTAL AND OPEN LAKE BUOY OBSERVATIONS

STATION/POSITION TEMP    WIND        PRES    VSBY  WAVE
                 AIR SEA DIR/SP/G                  HT/PER
                 (F)     (DEG/KT/KT) (MB)    (MI)  (FT/S)
CALUMET HARBOR    80      40/  7/  9 1017.7F
MICHIGAN CITY     77      40/  5/  6   N/A
BURNS HARBOR      81      60/  7/  7 1018.6F
SAINT JOSEPH      80      20/  4/  5 1020.0
SOUTH LAKE BUOY   73 72  120/  6/  6 1019.1          0
4 MI NW BRIDGMAN  77 74   30/  6/  6 1018.5F         0
MICHIGAN CITY     78 74   20/  6/  8   N/A           1

$$
&&




USA.gov is the U.S. government's official web portal to all federal, state and local government web resources and services.